TimeMST,TemperatureF,Dew PointF,Humidity,Sea Level PressureIn,VisibilityMPH,Wind Direction,Wind SpeedMPH,Gust SpeedMPH,PrecipitationIn,Events,Conditions,WindDirDegrees,DateUTC
12:26 AM,35.6,33.8,93,29.99,10.0,NNW,6.9,-,0.00,,Overcast,330,2012-11-25 07:26:00
12:53 AM,36.0,33.1,89,29.96,10.0,Calm,Calm,-,0.00,,Overcast,0,2012-11-25 07:53:00
1:02 AM,35.6,33.8,93,29.97,10.0,Calm,Calm,-,0.00,Rain,Light Rain,0,2012-11-25 08:02:00
1:23 AM,35.6,32.0,87,29.98,10.0,Calm,Calm,-,0.00,,Overcast,0,2012-11-25 08:23:00
1:30 AM,35.6,33.8,93,29.97,10.0,Calm,Calm,-,0.00,,Overcast,0,2012-11-25 08:30:00
1:53 AM,35.1,33.1,92,29.96,10.0,Calm,Calm,-,0.00,,Overcast,0,2012-11-25 08:53:00
2:53 AM,35.1,33.1,92,29.96,10.0,Calm,Calm,-,N/A,,Overcast,0,2012-11-25 09:53:00
3:01 AM,35.6,33.8,93,29.96,10.0,SW,3.5,-,N/A,,Overcast,220,2012-11-25 10:01:00
3:36 AM,35.6,33.8,93,29.94,10.0,South,3.5,-,N/A,,Overcast,180,2012-11-25 10:36:00
3:53 AM,35.1,32.0,89,29.94,10.0,South,4.6,-,N/A,,Overcast,170,2012-11-25 10:53:00
4:53 AM,35.1,32.0,89,29.93,10.0,Calm,Calm,-,0.00,Rain,Light Rain,0,2012-11-25 11:53:00
5:33 AM,33.8,32.0,93,29.93,5.0,Calm,Calm,-,0.00,Snow,Light Snow,0,2012-11-25 12:33:00
5:53 AM,34.0,32.0,92,29.94,3.0,Calm,Calm,-,0.01,Snow,Light Snow,0,2012-11-25 12:53:00
6:00 AM,33.8,32.0,93,29.93,2.0,Calm,Calm,-,0.00,Snow,Light Snow,0,2012-11-25 13:00:00
6:12 AM,33.8,32.0,93,29.93,4.0,Calm,Calm,-,0.01,Snow,Light Snow,0,2012-11-25 13:12:00
6:14 AM,33.8,32.0,93,29.93,4.0,Calm,Calm,-,0.01,Snow,Light Snow,0,2012-11-25 13:14:00
6:23 AM,33.8,30.2,87,29.92,1.5,ESE,3.5,-,0.01,Snow,Light Snow,120,2012-11-25 13:23:00
6:28 AM,33.8,30.2,87,29.92,0.8,SE,4.6,-,0.01,Snow,Light Snow,140,2012-11-25 13:28:00
6:53 AM,32.0,30.9,96,29.93,0.2,SSE,5.8,-,0.01,Fog-Snow,Light Snow,150,2012-11-25 13:53:00
7:48 AM,32.0,30.2,93,29.91,0.2,SE,4.6,-,0.01,Fog-Snow,Light Snow,140,2012-11-25 14:48:00
7:53 AM,32.0,30.9,96,29.93,0.2,SE,6.9,-,0.01,Fog-Snow,Light Snow,130,2012-11-25 14:53:00
8:18 AM,32.0,30.2,93,29.91,0.2,SE,4.6,-,0.00,Fog-Snow,Light Snow,130,2012-11-25 15:18:00
8:32 AM,32.0,30.2,93,29.91,0.2,Calm,Calm,-,0.00,Fog-Snow,Light Snow,0,2012-11-25 15:32:00
8:53 AM,32.0,30.9,96,29.95,0.2,ESE,4.6,-,0.01,Fog-Snow,Light Snow,120,2012-11-25 15:53:00
9:53 AM,32.0,30.9,96,29.96,0.2,East,3.5,-,0.05,Fog-Snow,Snow,90,2012-11-25 16:53:00
10:53 AM,32.0,30.9,96,29.98,0.2,Calm,Calm,-,0.08,Fog-Snow,Heavy Snow,0,2012-11-25 17:53:00
11:53 AM,30.9,30.0,96,29.97,0.2,ENE,4.6,-,0.08,Fog-Snow,Snow,60,2012-11-25 18:53:00
12:51 PM,30.2,28.4,93,29.94,1.2,North,8.1,-,0.04,Snow,Light Snow,360,2012-11-25 19:51:00
12:53 PM,30.9,28.9,92,29.98,1.2,North,8.1,-,0.04,Snow,Light Snow,360,2012-11-25 19:53:00
1:02 PM,30.2,28.4,93,29.94,0.8,North,9.2,-,0.00,Snow,Light Snow,360,2012-11-25 20:02:00
1:53 PM,30.9,28.9,92,30.01,0.2,North,6.9,-,0.06,Fog-Snow,Heavy Snow,350,2012-11-25 20:53:00
2:19 PM,30.2,28.4,93,29.96,0.2,NNE,5.8,-,0.03,Fog-Snow,Heavy Snow,20,2012-11-25 21:19:00
2:26 PM,30.2,28.4,93,29.96,0.2,North,9.2,-,0.03,Fog-Snow,Snow,10,2012-11-25 21:26:00
2:53 PM,28.9,27.0,92,30.02,0.2,NNE,11.5,21.9,0.05,Fog-Snow,Snow,20,2012-11-25 21:53:00
3:28 PM,28.4,26.6,93,29.98,1.2,North,9.2,-,0.00,Snow,Light Snow,360,2012-11-25 22:28:00
3:53 PM,28.0,27.0,96,30.05,1.0,North,8.1,-,0.01,Snow,Light Snow,350,2012-11-25 22:53:00
4:11 PM,28.4,26.6,93,29.99,1.2,North,8.1,-,0.01,Snow,Light Snow,10,2012-11-25 23:11:00
4:22 PM,28.4,26.6,93,30.00,1.8,North,6.9,-,0.01,Snow,Light Snow,360,2012-11-25 23:22:00
4:40 PM,28.4,26.6,93,30.00,0.8,NNW,6.9,-,0.01,Snow,Light Snow,340,2012-11-25 23:40:00
4:51 PM,28.4,26.6,93,30.01,0.8,NNW,8.1,-,0.02,Snow,Light Snow,330,2012-11-25 23:51:00
4:53 PM,28.0,26.1,92,30.07,0.8,NNW,6.9,-,0.02,Snow,Light Snow,330,2012-11-25 23:53:00
4:58 PM,28.4,26.6,93,30.00,0.8,NNW,5.8,-,0.00,Snow,Light Snow,340,2012-11-25 23:58:00
5:10 PM,28.4,26.6,93,30.01,1.0,NNW,6.9,-,0.01,Snow,Light Snow,330,2012-11-26 00:10:00
5:13 PM,28.4,26.6,93,30.01,1.2,NW,5.8,-,0.01,Snow,Light Snow,310,2012-11-26 00:13:00
5:23 PM,28.4,26.6,93,30.01,1.0,NW,6.9,-,0.01,Snow,Light Snow,310,2012-11-26 00:23:00
5:46 PM,28.4,26.6,93,30.02,1.0,NW,6.9,-,0.02,Snow,Light Snow,320,2012-11-26 00:46:00
5:53 PM,28.0,26.1,92,30.10,1.0,NNW,9.2,-,0.03,Snow,Light Snow,340,2012-11-26 00:53:00
6:11 PM,28.4,26.6,93,30.03,1.2,NNW,8.1,-,0.00,Snow,Light Snow,330,2012-11-26 01:11:00
6:16 PM,28.4,26.6,93,30.04,1.0,NNW,9.2,-,0.01,Snow,Light Snow,330,2012-11-26 01:16:00
6:25 PM,28.4,26.6,93,30.04,1.2,NW,9.2,-,0.01,Snow,Light Snow,320,2012-11-26 01:25:00
6:42 PM,28.4,26.6,93,30.04,1.2,NW,9.2,-,0.01,Snow,Light Snow,320,2012-11-26 01:42:00
6:49 PM,28.4,26.6,93,30.04,1.0,NW,10.4,-,0.01,Snow,Light Snow,320,2012-11-26 01:49:00
6:53 PM,28.0,26.1,92,30.12,1.0,NW,10.4,-,0.01,Snow,Light Snow,320,2012-11-26 01:53:00
7:17 PM,28.4,26.6,93,30.05,0.8,NNW,6.9,-,0.02,Snow,Light Snow,330,2012-11-26 02:17:00
7:53 PM,28.0,26.1,92,30.14,1.2,NNW,4.6,-,0.04,Snow,Light Snow,340,2012-11-26 02:53:00
8:05 PM,28.4,26.6,93,30.06,1.5,NNW,3.5,-,0.00,Snow,Light Snow,330,2012-11-26 03:05:00
8:14 PM,28.4,26.6,93,30.06,3.0,NW,4.6,-,0.00,Snow,Light Snow,310,2012-11-26 03:14:00
8:36 PM,26.6,24.8,93,30.07,6.0,WNW,3.5,-,0.00,Snow,Light Snow,300,2012-11-26 03:36:00
8:53 PM,28.0,25.0,88,30.15,6.0,Calm,Calm,-,0.00,Snow,Light Snow,0,2012-11-26 03:53:00
9:43 PM,28.4,24.8,86,30.09,10.0,NE,4.6,-,0.00,,Overcast,40,2012-11-26 04:43:00
9:53 PM,27.0,25.0,92,30.17,10.0,North,5.8,-,0.00,,Overcast,350,2012-11-26 04:53:00
10:12 PM,26.6,24.8,93,30.09,5.0,NNE,3.5,-,0.00,Snow,Light Snow,30,2012-11-26 05:12:00
10:35 PM,26.6,24.8,93,30.11,2.5,NE,5.8,-,0.00,Snow,Light Snow,40,2012-11-26 05:35:00
10:43 PM,26.6,24.8,93,30.11,4.0,NE,4.6,-,0.00,Snow,Light Snow,50,2012-11-26 05:43:00
10:53 PM,26.1,24.1,92,30.21,2.5,NE,5.8,-,0.00,Snow,Light Snow,40,2012-11-26 05:53:00
11:06 PM,24.8,23.0,93,30.13,3.0,ENE,3.5,-,0.00,Snow,Light Snow,70,2012-11-26 06:06:00
11:30 PM,24.8,23.0,93,30.14,2.5,NNE,6.9,-,0.01,Snow,Light Snow,30,2012-11-26 06:30:00
11:44 PM,24.8,21.2,86,30.14,1.8,North,5.8,-,0.01,Snow,Light Snow,10,2012-11-26 06:44:00
11:53 PM,24.1,21.9,91,30.24,1.5,North,5.8,-,0.01,Snow,Light Snow,10,2012-11-26 06:53:00